Location: Kerb�bon
(47.7970°N, 3.3487°W)
Time: 12:34:31
(UTC+00:00)

Cosmos 1515 Rocket - Pass Details

Date: 12 May 2021
Orbit: 605 x 630 km, 82.5° (Epoch: 18 June)

Event Time Altitude Azimuth Distance (km) Brightness Sun altitude
Exits shadow 20:45:51 10° 156° (SSE) 1,968 5.6 -9.7°
Maximum altitude 20:49:48 35° 91° (E) 1,008 4.3 -10.2°
Drops below altitude 10° 20:53:48 10° 26° (NNE) 1,989 6.4 -10.7°
Sets 20:56:09 0° 18° (NNE) 2,896 7.4 -10.9°
